STARLINK-11280, 61245

Orbit data source: Space-Track

STARLINK-11280, 61245 is a payload satellite owned by SpaceX/Seattle (US) in LEO that was launched on Wed, 25 Sep 2024 UTC via an FALCON 9 launch vehicle from the Air Force Western Test Range (AFWTR). Payload-class satellites include a variety of spacecraft equipped with specific instruments for various scientific and technological missions. These include communications satellites like Starlink; space stations such as the ISS; scientific satellites like the Hubble; Earth observation satellites from companies like Planet Labs, Umbra, and HawkEye 360; GPS; miniature CubeSats for education and research; and military/defense satellites.

Loading next visibility...
Identifier
61245, 2024-175C
Orbit
LEO
Country
Flag of USUS
Related business
Manufacturer
SpaceX/Seattle
Mission
Operational Commercial Communications
Bus & Motor
STARLINK V2MD, Unknown motor
Mass
960 kg wet, ~910 kg dry
Launch date (UTC)
2024-09-25 (2 years ago)
Launch vehicle
FALCON 9
Launch site
Air Force Western Test Range (AFWTR)
Object type
Payload
Rocket body
Debris
Shape & HBR
Box + 2 Pan, 18.1 m
Radar Cross Section
36.964 m², Large (>1 m²)

Expand to show TLE details & history
Last TLE update: 1 day ago

TLE from 1 day ago
0 STARLINK-11280
1 61245U 24175C   26191.33336806 -.00129606  00000-0 -10796-2 0  9999
2 61245  53.1566 171.5409 0001259  79.3525 187.8056 15.69754866  5996
Epoch: 2026-07-10T08:00Z
TLE epoch observation values (Epoch: 2026-07-10T08:00:03.000Z)
Latitude
-53.21731°
Longitude
28.54144°
Altitude
378.926 km
Speed
7.682 km/s
True Right ascension
05h 07m 15s
True Declination
-53° 02' 35"
Sunlit
Object was in daylight at epoch
Visualization orbit readout
Latitude
Unknown
Longitude
Unknown
Altitude
Unknown
Speed
Unknown
Apparent Right ascension
Unknown
Apparent Declination
Unknown
Sunlit
N/A
Visualization observer readout
Local Sidereal Time
03:48:36
Azimuth
Unknown
Elevation
Unknown
Doppler factor
Unknown
Orbital elements
Apogee altitude
360.708 km
Perigee altitude
359.011 km
Semi-major axis
6,737.997 km
Eccentricity
0.00013
Inclination
53.1566°
RAAN
171.5409°
Arg. of periapsis
79.3525°
True anomaly
187.80364°
Mean anomaly
187.8056°
Eccentric anomaly
187.80462°
Mean motion
3.92416 °/min
Orbital period
91.74 mins
BSTAR
-0.0010796
Loading maneuver chart data...
Computing Atmospheric mass density...
Loading historical data...
Loading historical data...
Loading historical data...
Loading historical data...
Loading historical data...
Loading historical data...
Loading historical data...

Documentation

Showing up to 5 results
|